Location: Ostrava
(49.8330°N, 18.2830°E)
Time: 12:49:34
(UTC+01:00)

N. Korean satellite - Visible Passes

Search period start: 26 January 2022 00:00
Search period end: 05 February 2022 00:00
Orbit: 447 x 491 km, 97.3° (Epoch: 25 January)

Date Brightness Start Highest point End Pass type
(mag) Time Alt. Az. Time Alt. Az. Time Alt. Az.
26 Jan 6.5 05:12:28 10° NNE 05:16:07 90° WNW 05:17:46 31° SSW visible
26 Jan 8.6 06:48:18 10° NW 06:48:38 10° WNW 06:48:58 10° WNW visible
26 Jan 10.1 17:26:03 10° WSW 17:27:14 11° W 17:28:24 10° WNW visible
27 Jan 7.9 04:43:23 10° NNE 04:46:52 40° E 04:48:41 23° SSE visible
27 Jan 8.0 06:17:08 10° NNW 06:19:44 19° WNW 06:22:20 10° WSW visible
28 Jan 9.2 04:14:43 10° NE 04:17:27 20° E 04:19:38 13° SE visible
28 Jan 7.1 05:47:21 10° N 05:50:43 36° WNW 05:53:41 12° SW visible
29 Jan 6.4 05:17:54 10° N 05:21:34 78° WNW 05:24:39 14° SSW visible
30 Jan 7.5 04:48:44 10° NNE 04:52:16 47° E 04:55:38 11° S visible
30 Jan 8.1 06:22:42 10° NNW 06:25:05 17° WNW 06:27:27 10° WSW visible
31 Jan 9.0 04:19:55 10° NE 04:22:51 22° E 04:25:45 10° SSE visible
31 Jan 7.3 05:52:46 10° N 05:56:02 31° WNW 05:59:16 10° SW visible
01 Feb 9.9 03:52:07 10° ENE 03:53:17 11° E 03:54:26 10° ESE visible
01 Feb 6.4 05:23:13 10° N 05:26:52 67° WNW 05:30:26 10° SSW visible
02 Feb 7.2 04:53:57 10° NNE 04:57:32 54° E 05:01:05 10° S visible
02 Feb 8.3 06:28:09 10° NNW 06:30:16 15° WNW 06:32:23 10° W visible
03 Feb 8.8 04:25:01 10° NE 04:28:06 25° E 04:31:07 10° SSE visible
03 Feb 7.5 05:58:03 10° N 06:01:12 28° WNW 06:04:19 10° SW visible
04 Feb 9.8 03:56:49 10° ENE 03:58:30 13° E 04:00:09 10° ESE visible
04 Feb 6.5 05:28:25 10° N 05:32:00 58° WNW 05:35:32 10° SSW visible
